Regional Weather Roundup
Issued by NWS

Home | Current Version | Previous Version | Graphics & Text | Print | Product List | Glossary On
Versions: 1 2 3 4 5 6 7 8 9 10 11 12 13 14 15 16 17 18 19 20 21 22 23 24 25 26 27 28 29 30 31 32 33 34 35 36 37 38 39 40 41 42 43 44 45 46 47 48 49 50
000
ASUS45 KBOI 030210
RWRID
WEATHER ROUNDUP FOR IDAHO
NATIONAL WEATHER SERVICE BOISE ID
700 PM MST MON MAR 02 2015

NOTE: "FAIR" INDICATES FEW OR NO CLOUDS BELOW 12000 FEET
WITH NO SIGNIFICANT WEATHER AND/OR OBSTRUCTIONS TO VISIBILITY

IDZ012-014-030300-
SOUTHWEST IDAHO


CITY           SKY/WX    TMP DP  RH WIND       PRES   REMARKS
BOISE          CLOUDY    44  18  35 NW9       29.73R
CALDWELL       CLOUDY    45  19  36 W8        29.76S
MOUNTAIN HOME  CLOUDY    42  20  41 W12       29.72R
$$

IDZ016-017-030300-
SOUTHCENTRAL IDAHO


CITY           SKY/WX    TMP DP  RH WIND       PRES   REMARKS
BURLEY         PTCLDY    40  13  33 W13       29.64R WCI  32
JEROME         CLEAR     40  16  37 SW13      29.67R WCI  32
TWIN FALLS     CLEAR     38  17  42 W10       29.68R WCI  31
$$

IDZ019>023-030300-
SOUTHEAST IDAHO


CITY           SKY/WX    TMP DP  RH WIND       PRES   REMARKS
IDAHO FALLS    CLOUDY    36  24  62 SW5       29.62R WCI  32
POCATELLO      CLEAR     35  23  61 S6        29.64R WCI  30
REXBURG        CLOUDY    35  32  88 SW6       29.60S WCI  30
$$

IDZ006-010-011-018-031-032-030300-
CENTRAL IDAHO MOUNTAINS


CITY           SKY/WX    TMP DP  RH WIND       PRES   REMARKS
MCCALL         CLOUDY    32  18  56 NW6       29.70R WCI  26
HAILEY         MOCLDY    39  16  38 CALM      29.62R
STANLEY          N/A     31  15  52 NW9       29.65R WCI  23
SALMON         CLOUDY    39  10  30 N3        29.65R
CHALLIS        CLOUDY    38  12  34 NE8       29.62R WCI  32
$$

IDZ002-004-006-007-026-030300-
NORTHERN IDAHO


CITY           SKY/WX    TMP DP  RH WIND       PRES   REMARKS
LEWISTON       CLOUDY    40  30  67 N3        29.91R
LOWELL           N/A     37  33  85 SE5       29.90R WCI  33
COEUR D`ALENE  MOCLDY    34  25  69 N12       29.90R WCI  25
MULLAN PASS    LGT SNOW  19  17  92 CALM      29.73R VSB 3/4
$$



USA.gov is the U.S. government's official web portal to all federal, state and local government web resources and services.